OMD520 PANC-UHPP

Flight info

Callsign OMD520
Flight time 3h 51m
Altitude 40000
Route NODLE R220 NOSHO DCT BESAT/K0891F400 G583 KULOD KULOD5N
Aircraft A346/H-SDE2E3FGHIJ3J4J5M1RWXY/LB1D1

Departure

Time 2026-05-06 16:34
Airport Ted Stevens Anchorage International Airport (PANC)

Arrival

Time 2026-05-06 20:26
Airport Yelizovo Airport (UHPP)
Time Latitude Longitude Altitude Speed Heading
2026-05-06 15:52 61.18656 -149.99968 125 ft 0 kts 344°
2026-05-06 16:25 61.18664 -149.99973 121 ft 3 kts 344°
2026-05-06 16:26 61.18690 -149.99993 123 ft 5 kts 329°
2026-05-06 16:26 61.18711 -150.00059 126 ft 7 kts 285°
2026-05-06 16:26 61.18708 -150.00172 127 ft 10 kts 258°
2026-05-06 16:26 61.18674 -150.00316 130 ft 12 kts 211°
2026-05-06 16:27 61.18577 -150.00313 134 ft 17 kts 166°
2026-05-06 16:27 61.18446 -150.00242 131 ft 22 kts 164°
2026-05-06 16:27 61.18282 -150.00151 126 ft 26 kts 166°
2026-05-06 16:27 61.18101 -150.00051 126 ft 29 kts 165°
2026-05-06 16:28 61.17901 -149.99939 123 ft 31 kts 165°
2026-05-06 16:28 61.17692 -149.99821 123 ft 31 kts 165°
2026-05-06 16:28 61.17483 -149.99706 127 ft 31 kts 165°
2026-05-06 16:28 61.17275 -149.99589 128 ft 27 kts 165°
2026-05-06 16:29 61.17145 -149.99491 128 ft 17 kts 126°
2026-05-06 16:29 61.17125 -149.99211 126 ft 22 kts 90°
2026-05-06 16:29 61.17119 -149.98870 121 ft 25 kts 92°
2026-05-06 16:29 61.17118 -149.98492 121 ft 27 kts 89°
2026-05-06 16:30 61.17117 -149.98089 120 ft 29 kts 90°
2026-05-06 16:30 61.17118 -149.97805 117 ft 31 kts 90°
2026-05-06 16:30 61.17126 -149.97184 109 ft 34 kts 89°
2026-05-06 16:30 61.17128 -149.96688 100 ft 35 kts 90°
2026-05-06 16:31 61.17129 -149.96180 105 ft 35 kts 89°
2026-05-06 16:31 61.17128 -149.95668 105 ft 35 kts 90°
2026-05-06 16:31 61.17129 -149.95228 105 ft 25 kts 89°
2026-05-06 16:31 61.17125 -149.94895 105 ft 11 kts 109°
2026-05-06 16:32 61.17109 -149.94856 105 ft 0 kts 148°
2026-05-06 16:32 61.17101 -149.94846 105 ft 3 kts 148°
2026-05-06 16:32 61.17072 -149.94820 105 ft 5 kts 174°
2026-05-06 16:33 61.17015 -149.94874 108 ft 13 kts 224°
2026-05-06 16:33 61.16980 -149.95272 109 ft 54 kts 269°
2026-05-06 16:33 61.16979 -149.96545 117 ft 122 kts 271°
2026-05-06 16:34 61.16977 -150.01437 681 ft 188 kts 268°
2026-05-06 16:34 61.16975 -150.04203 1570 ft 197 kts 271°
2026-05-06 16:34 61.17096 -150.07089 2295 ft 203 kts 277°
2026-05-06 16:34 61.17306 -150.10025 3021 ft 208 kts 278°
2026-05-06 16:35 61.17539 -150.13016 3743 ft 213 kts 278°
2026-05-06 16:35 61.17749 -150.16171 4271 ft 230 kts 277°
2026-05-06 16:35 61.17962 -150.19641 4771 ft 251 kts 276°
2026-05-06 16:35 61.18191 -150.23371 5367 ft 269 kts 276°
2026-05-06 16:36 61.18436 -150.27300 6212 ft 278 kts 276°
2026-05-06 16:36 61.18687 -150.31300 7185 ft 281 kts 276°
2026-05-06 16:36 61.18941 -150.35332 8212 ft 283 kts 276°
2026-05-06 16:36 61.19196 -150.39398 9227 ft 285 kts 275°
2026-05-06 16:37 61.19453 -150.43512 10128 ft 290 kts 275°
2026-05-06 16:37 61.19716 -150.47780 10691 ft 309 kts 275°
2026-05-06 16:37 61.19999 -150.52416 10937 ft 339 kts 276°
2026-05-06 16:37 61.20302 -150.57373 10928 ft 358 kts 276°
2026-05-06 16:38 61.20619 -150.62531 10930 ft 361 kts 276°
2026-05-06 16:38 61.20936 -150.67702 10927 ft 361 kts 276°
2026-05-06 16:38 61.21251 -150.72870 10927 ft 361 kts 276°
2026-05-06 16:38 61.21563 -150.78038 10927 ft 361 kts 276°
2026-05-06 16:39 61.21873 -150.83205 10928 ft 360 kts 276°
2026-05-06 16:39 61.22181 -150.88377 10927 ft 360 kts 276°
2026-05-06 16:39 61.22486 -150.93545 10931 ft 360 kts 276°
2026-05-06 16:39 61.22789 -150.98712 10931 ft 360 kts 276°
2026-05-06 16:40 61.23090 -151.03879 10926 ft 360 kts 276°
2026-05-06 16:40 61.23389 -151.09045 10929 ft 360 kts 276°
2026-05-06 16:40 61.23685 -151.14206 10934 ft 360 kts 275°
2026-05-06 16:40 61.23982 -151.19409 10995 ft 367 kts 275°
2026-05-06 16:41 61.24285 -151.24777 11705 ft 376 kts 276°
2026-05-06 16:41 61.24587 -151.30137 13013 ft 371 kts 275°
2026-05-06 16:41 61.24887 -151.35472 14094 ft 373 kts 275°
2026-05-06 16:41 61.25187 -151.40887 14912 ft 379 kts 275°
2026-05-06 16:42 61.25487 -151.46371 15755 ft 384 kts 275°
2026-05-06 16:42 61.25790 -151.51922 16648 ft 388 kts 275°
2026-05-06 16:42 61.26094 -151.57539 17538 ft 393 kts 275°
2026-05-06 16:42 61.26396 -151.63142 18384 ft 397 kts 276°
2026-05-06 16:43 61.26707 -151.68973 19144 ft 402 kts 276°
2026-05-06 16:43 61.27016 -151.74782 19907 ft 406 kts 276°
2026-05-06 16:43 61.27321 -151.80587 20655 ft 411 kts 276°
2026-05-06 16:43 61.27628 -151.86532 21411 ft 415 kts 276°
2026-05-06 16:44 61.27937 -151.92544 22152 ft 420 kts 276°
2026-05-06 16:44 61.28218 -151.98624 22897 ft 424 kts 274°
2026-05-06 16:44 61.28347 -152.04825 23625 ft 428 kts 271°
2026-05-06 16:44 61.28368 -152.11058 24232 ft 433 kts 271°
2026-05-06 16:45 61.28400 -152.17356 24847 ft 436 kts 271°
2026-05-06 16:45 61.28434 -152.23706 25448 ft 440 kts 271°
2026-05-06 16:45 61.28467 -152.30116 26065 ft 444 kts 271°
2026-05-06 16:45 61.28495 -152.36574 26637 ft 449 kts 271°
2026-05-06 16:46 61.28519 -152.43113 27217 ft 453 kts 271°
2026-05-06 16:46 61.28540 -152.49696 27785 ft 457 kts 271°
2026-05-06 16:46 61.28557 -152.56350 28356 ft 461 kts 271°
2026-05-06 16:46 61.28571 -152.63065 28908 ft 466 kts 271°
2026-05-06 16:47 61.28581 -152.69838 29459 ft 470 kts 271°
2026-05-06 16:47 61.28589 -152.76663 30116 ft 471 kts 271°
2026-05-06 16:47 61.28594 -152.83452 30817 ft 468 kts 270°
2026-05-06 16:47 61.28597 -152.90228 31509 ft 466 kts 270°
2026-05-06 16:48 61.28595 -152.96975 32152 ft 466 kts 270°
2026-05-06 16:48 61.28590 -153.03760 32774 ft 466 kts 269°
2026-05-06 16:48 61.28580 -153.10492 33390 ft 465 kts 269°
2026-05-06 16:48 61.28567 -153.17225 34022 ft 465 kts 269°
2026-05-06 16:49 61.28550 -153.23954 34541 ft 464 kts 269°
2026-05-06 16:49 61.28527 -153.30756 35039 ft 464 kts 269°
2026-05-06 16:49 61.28502 -153.37471 35514 ft 464 kts 269°
2026-05-06 16:49 61.28475 -153.44245 35973 ft 464 kts 269°
2026-05-06 16:50 61.28444 -153.50958 36384 ft 464 kts 268°
2026-05-06 16:50 61.28410 -153.57698 36778 ft 465 kts 268°
2026-05-06 16:50 61.28373 -153.64422 37161 ft 465 kts 268°
2026-05-06 16:50 61.28333 -153.71157 37519 ft 466 kts 268°
2026-05-06 16:51 61.28290 -153.77952 37876 ft 466 kts 268°
2026-05-06 16:51 61.28243 -153.84669 38216 ft 466 kts 268°
2026-05-06 16:51 61.28192 -153.91457 38542 ft 467 kts 268°
2026-05-06 16:51 61.28138 -153.98233 38761 ft 469 kts 268°
2026-05-06 16:52 61.28081 -154.05036 38943 ft 471 kts 268°
2026-05-06 16:52 61.28019 -154.11866 39132 ft 472 kts 268°
2026-05-06 16:52 61.27954 -154.18723 39347 ft 473 kts 268°
2026-05-06 16:52 61.27886 -154.25574 39540 ft 474 kts 268°
2026-05-06 16:53 61.27814 -154.32452 39732 ft 475 kts 268°
2026-05-06 16:53 61.27740 -154.39251 39916 ft 477 kts 268°
2026-05-06 16:53 61.27660 -154.46152 40009 ft 478 kts 268°
2026-05-06 16:54 61.27492 -154.60012 40016 ft 479 kts 268°
2026-05-06 16:54 61.27308 -154.73878 40027 ft 479 kts 267°
2026-05-06 16:55 61.27111 -154.87721 40022 ft 479 kts 267°
2026-05-06 16:55 61.26899 -155.01579 40016 ft 479 kts 267°
2026-05-06 16:56 61.26673 -155.15437 40004 ft 479 kts 267°
2026-05-06 16:56 61.26434 -155.29280 39998 ft 479 kts 267°
2026-05-06 16:57 61.26180 -155.43124 39989 ft 479 kts 267°
2026-05-06 16:57 61.25912 -155.56971 39990 ft 479 kts 267°
2026-05-06 16:58 61.25631 -155.70811 39990 ft 479 kts 266°
2026-05-06 16:58 61.25334 -155.84663 40002 ft 479 kts 266°
2026-05-06 16:59 61.25036 -155.98505 40013 ft 479 kts 268°
2026-05-06 16:59 61.25052 -156.12361 40031 ft 479 kts 270°
2026-05-06 17:00 61.25130 -156.26258 40048 ft 479 kts 270°
2026-05-06 17:00 61.25193 -156.40127 40048 ft 479 kts 270°
2026-05-06 17:01 61.25241 -156.53982 40050 ft 479 kts 269°
2026-05-06 17:01 61.25273 -156.67841 40051 ft 478 kts 269°
2026-05-06 17:02 61.25291 -156.81581 40054 ft 478 kts 269°
2026-05-06 17:02 61.25295 -156.95385 40057 ft 477 kts 269°
2026-05-06 17:03 61.25287 -157.06949 40062 ft 477 kts 269°
2026-05-06 17:03 61.25264 -157.20753 40056 ft 477 kts 269°
2026-05-06 17:04 61.25230 -157.34526 40065 ft 476 kts 269°
2026-05-06 17:04 61.25183 -157.48307 40074 ft 476 kts 269°
2026-05-06 17:05 61.25120 -157.62065 40070 ft 476 kts 269°
2026-05-06 17:05 61.25042 -157.75823 40077 ft 475 kts 269°
2026-05-06 17:06 61.24950 -157.89578 40081 ft 475 kts 269°
2026-05-06 17:06 61.24844 -158.03404 40082 ft 476 kts 269°
2026-05-06 17:07 61.24725 -158.17159 40084 ft 476 kts 269°
2026-05-06 17:07 61.24591 -158.30908 40090 ft 475 kts 269°
2026-05-06 17:08 61.24444 -158.44656 40095 ft 475 kts 269°
2026-05-06 17:08 61.24283 -158.58389 40095 ft 475 kts 268°
2026-05-06 17:09 61.24098 -158.72035 40073 ft 467 kts 269°
2026-05-06 17:09 61.23910 -158.85510 40092 ft 466 kts 269°
2026-05-06 17:10 61.23711 -158.98973 40101 ft 466 kts 269°
2026-05-06 17:10 61.23500 -159.12426 40106 ft 466 kts 269°
2026-05-06 17:11 61.23314 -159.23604 40106 ft 466 kts 269°
2026-05-06 17:11 61.23078 -159.37055 40104 ft 466 kts 269°
2026-05-06 17:12 61.22828 -159.50508 40097 ft 466 kts 269°
2026-05-06 17:12 61.22566 -159.63955 40094 ft 466 kts 269°
2026-05-06 17:13 61.22289 -159.77413 40093 ft 466 kts 269°
2026-05-06 17:13 61.22000 -159.90868 40096 ft 466 kts 268°
2026-05-06 17:14 61.21697 -160.04316 40102 ft 466 kts 268°
2026-05-06 17:14 61.21380 -160.17775 40109 ft 466 kts 268°
2026-05-06 17:15 61.21050 -160.31232 40106 ft 466 kts 268°
2026-05-06 17:15 61.20708 -160.44676 40107 ft 466 kts 268°
2026-05-06 17:16 61.20350 -160.58176 40109 ft 466 kts 268°
2026-05-06 17:16 61.19982 -160.71550 40114 ft 466 kts 268°
2026-05-06 17:17 61.19599 -160.84993 40113 ft 466 kts 268°
2026-05-06 17:17 61.19201 -160.98484 40117 ft 466 kts 268°
2026-05-06 17:18 61.18792 -161.11909 40114 ft 466 kts 268°
2026-05-06 17:18 61.18369 -161.25337 40119 ft 466 kts 268°
2026-05-06 17:19 61.17933 -161.38769 40119 ft 466 kts 268°
2026-05-06 17:19 61.17484 -161.52186 40127 ft 466 kts 267°
2026-05-06 17:20 61.17020 -161.65630 40131 ft 466 kts 267°
2026-05-06 17:20 61.16544 -161.79043 40140 ft 466 kts 267°
2026-05-06 17:21 61.16055 -161.92448 40142 ft 466 kts 267°
2026-05-06 17:21 61.15554 -162.05841 40145 ft 466 kts 267°
2026-05-06 17:22 61.15039 -162.19236 40143 ft 466 kts 267°
2026-05-06 17:22 61.14510 -162.32628 40144 ft 466 kts 267°
2026-05-06 17:23 61.13973 -162.45912 40148 ft 466 kts 266°
2026-05-06 17:23 61.13419 -162.59291 40145 ft 466 kts 266°
2026-05-06 17:24 61.12850 -162.72721 40152 ft 466 kts 266°
2026-05-06 17:24 61.12269 -162.86087 40151 ft 466 kts 266°
2026-05-06 17:25 61.11704 -162.99538 40150 ft 465 kts 268°
2026-05-06 17:25 61.11497 -163.12926 40153 ft 465 kts 270°
2026-05-06 17:26 61.11340 -163.26304 40153 ft 465 kts 270°
2026-05-06 17:26 61.11170 -163.39729 40155 ft 465 kts 270°
2026-05-06 17:27 61.10987 -163.53117 40154 ft 465 kts 270°
2026-05-06 17:27 61.10790 -163.66503 40155 ft 465 kts 270°
2026-05-06 17:28 61.10580 -163.79885 40152 ft 465 kts 270°
2026-05-06 17:28 61.10356 -163.93309 40150 ft 465 kts 270°
2026-05-06 17:29 61.10119 -164.06693 40151 ft 465 kts 269°
2026-05-06 17:29 61.09869 -164.20070 40150 ft 465 kts 269°
2026-05-06 17:30 61.09606 -164.33456 40150 ft 465 kts 269°
2026-05-06 17:30 61.09329 -164.46828 40152 ft 465 kts 269°
2026-05-06 17:31 61.09040 -164.60210 40153 ft 465 kts 269°
2026-05-06 17:31 61.08739 -164.73486 40157 ft 465 kts 269°
2026-05-06 17:32 61.08423 -164.86845 40153 ft 465 kts 269°
2026-05-06 17:32 61.08094 -165.00208 40156 ft 465 kts 269°
2026-05-06 17:33 61.07752 -165.13565 40156 ft 465 kts 269°
2026-05-06 17:33 61.07396 -165.26919 40161 ft 465 kts 269°
2026-05-06 17:34 61.07028 -165.40274 40150 ft 465 kts 268°
2026-05-06 17:34 61.06646 -165.53624 40146 ft 465 kts 268°
2026-05-06 17:35 61.06251 -165.66971 40136 ft 465 kts 268°
2026-05-06 17:35 61.05843 -165.80319 40133 ft 465 kts 268°
2026-05-06 17:36 61.05206 -166.00329 40130 ft 465 kts 268°
2026-05-06 17:36 61.04765 -166.13659 40124 ft 465 kts 268°
2026-05-06 17:37 61.04311 -166.26990 40125 ft 465 kts 268°
2026-05-06 17:37 61.03843 -166.40322 40125 ft 465 kts 268°
2026-05-06 17:38 61.03362 -166.53647 40123 ft 465 kts 268°
2026-05-06 17:38 61.02869 -166.66965 40124 ft 465 kts 268°
2026-05-06 17:39 61.02365 -166.80202 40130 ft 465 kts 267°
2026-05-06 17:39 61.01845 -166.93516 40128 ft 465 kts 267°
2026-05-06 17:40 61.01312 -167.06826 40129 ft 465 kts 267°
2026-05-06 17:40 61.00767 -167.20127 40127 ft 465 kts 267°
2026-05-06 17:41 61.00207 -167.33435 40128 ft 465 kts 267°
2026-05-06 17:41 60.99635 -167.46734 40127 ft 465 kts 267°
2026-05-06 17:42 60.99049 -167.60031 40128 ft 465 kts 266°
2026-05-06 17:42 60.98450 -167.73321 40127 ft 465 kts 266°
2026-05-06 17:43 60.97839 -167.86603 40129 ft 465 kts 266°
2026-05-06 17:43 60.97214 -167.99895 40131 ft 465 kts 266°
2026-05-06 17:44 60.96576 -168.13178 40130 ft 465 kts 266°
2026-05-06 17:44 60.95924 -168.26452 40131 ft 466 kts 266°
2026-05-06 17:45 60.95259 -168.39738 40130 ft 466 kts 266°
2026-05-06 17:45 60.94582 -168.53001 40134 ft 466 kts 266°
2026-05-06 17:46 60.93891 -168.66274 40133 ft 466 kts 265°
2026-05-06 17:46 60.93187 -168.79541 40136 ft 466 kts 265°
2026-05-06 17:47 60.92475 -168.92711 40133 ft 466 kts 265°
2026-05-06 17:47 60.91745 -169.05969 40135 ft 466 kts 265°
2026-05-06 17:48 60.91002 -169.19218 40132 ft 466 kts 265°
2026-05-06 17:48 60.90244 -169.32482 40130 ft 466 kts 265°
2026-05-06 17:49 60.89475 -169.45728 40133 ft 467 kts 265°
2026-05-06 17:49 60.88691 -169.58978 40130 ft 467 kts 265°
2026-05-06 17:50 60.87894 -169.72233 40132 ft 467 kts 265°
2026-05-06 17:50 60.87085 -169.85472 40132 ft 467 kts 264°
2026-05-06 17:51 60.86262 -169.98712 40133 ft 467 kts 264°
2026-05-06 17:51 60.85425 -170.11948 40132 ft 467 kts 264°
2026-05-06 17:52 60.84575 -170.25196 40132 ft 467 kts 264°
2026-05-06 17:52 60.83712 -170.38426 40135 ft 467 kts 264°
2026-05-06 17:53 60.82836 -170.51652 40138 ft 468 kts 264°
2026-05-06 17:53 60.81947 -170.64877 40135 ft 468 kts 264°
2026-05-06 17:54 60.81044 -170.78098 40136 ft 468 kts 263°
2026-05-06 17:54 60.80128 -170.91320 40135 ft 468 kts 263°
2026-05-06 17:55 60.79200 -171.04528 40136 ft 468 kts 263°
2026-05-06 17:55 60.78257 -171.17747 40137 ft 468 kts 263°
2026-05-06 17:56 60.77302 -171.30948 40134 ft 468 kts 263°
2026-05-06 17:56 60.76333 -171.44150 40147 ft 468 kts 263°
2026-05-06 17:57 60.75352 -171.57334 40142 ft 468 kts 263°
2026-05-06 17:57 60.74356 -171.70529 40144 ft 468 kts 263°
2026-05-06 17:58 60.73349 -171.83706 40141 ft 469 kts 262°
2026-05-06 17:58 60.72336 -171.96781 40142 ft 469 kts 262°
2026-05-06 17:59 60.71302 -172.09950 40139 ft 469 kts 262°
2026-05-06 17:59 60.70255 -172.23107 40146 ft 469 kts 262°
2026-05-06 18:00 60.69196 -172.36253 40142 ft 469 kts 262°
2026-05-06 18:00 60.68123 -172.49395 40138 ft 469 kts 262°
2026-05-06 18:01 60.67039 -172.62516 40140 ft 469 kts 262°
2026-05-06 18:01 60.65941 -172.75640 40143 ft 469 kts 262°
2026-05-06 18:02 60.64830 -172.88750 40139 ft 469 kts 261°
2026-05-06 18:02 60.63707 -173.01844 40146 ft 468 kts 261°
2026-05-06 18:03 60.62762 -173.12736 40144 ft 468 kts 261°
2026-05-06 18:03 60.61617 -173.25802 40141 ft 468 kts 261°
2026-05-06 18:04 60.60458 -173.38872 40142 ft 468 kts 261°
2026-05-06 18:04 60.59288 -173.51917 40143 ft 468 kts 261°
2026-05-06 18:05 60.58104 -173.64958 40143 ft 468 kts 261°
2026-05-06 18:05 60.56908 -173.77986 40139 ft 468 kts 261°
2026-05-06 18:06 60.55698 -173.91017 40142 ft 468 kts 261°
2026-05-06 18:06 60.54477 -174.04019 40141 ft 468 kts 260°
2026-05-06 18:07 60.53241 -174.17032 40141 ft 468 kts 260°
2026-05-06 18:07 60.51995 -174.30017 40141 ft 468 kts 260°
2026-05-06 18:08 60.50735 -174.42997 40142 ft 468 kts 260°
2026-05-06 18:08 60.49462 -174.55981 40139 ft 468 kts 260°
2026-05-06 18:09 60.48178 -174.68936 40138 ft 468 kts 259°
2026-05-06 18:09 60.46879 -174.81903 40137 ft 468 kts 259°
2026-05-06 18:10 60.45568 -174.94854 40136 ft 468 kts 259°
2026-05-06 18:10 60.44244 -175.07797 40136 ft 468 kts 259°
2026-05-06 18:11 60.42908 -175.20729 40136 ft 468 kts 259°
2026-05-06 18:11 60.41568 -175.33565 40133 ft 469 kts 259°
2026-05-06 18:12 60.40196 -175.46577 40131 ft 469 kts 259°
2026-05-06 18:12 60.38823 -175.59470 40132 ft 469 kts 258°
2026-05-06 18:13 60.37445 -175.72287 40130 ft 469 kts 258°
2026-05-06 18:13 60.36046 -175.85169 40130 ft 469 kts 258°
2026-05-06 18:14 60.34633 -175.98054 40133 ft 469 kts 258°
2026-05-06 18:14 60.33206 -176.10937 40129 ft 469 kts 258°
2026-05-06 18:15 60.31768 -176.23801 40127 ft 469 kts 258°
2026-05-06 18:15 60.30314 -176.36682 40145 ft 472 kts 258°
2026-05-06 18:16 60.29580 -176.43150 40400 ft 473 kts 257°
2026-05-06 18:16 60.28843 -176.49605 40772 ft 471 kts 257°
2026-05-06 18:16 60.28104 -176.56040 41084 ft 470 kts 257°
2026-05-06 18:16 60.27364 -176.62464 41115 ft 470 kts 257°
2026-05-06 18:17 60.25873 -176.75308 41115 ft 470 kts 257°
2026-05-06 18:17 60.24370 -176.88134 41118 ft 470 kts 257°
2026-05-06 18:18 60.22854 -177.00958 41116 ft 470 kts 257°
2026-05-06 18:18 60.21336 -177.13690 41115 ft 471 kts 257°
2026-05-06 18:19 60.19793 -177.26507 41108 ft 471 kts 256°
2026-05-06 18:19 60.18238 -177.39312 41110 ft 471 kts 256°
2026-05-06 18:20 60.16669 -177.52121 41108 ft 471 kts 256°
2026-05-06 18:20 60.15089 -177.64901 41104 ft 471 kts 256°
2026-05-06 18:21 60.13497 -177.77671 41104 ft 471 kts 256°
2026-05-06 18:21 60.11890 -177.90446 41102 ft 471 kts 256°
2026-05-06 18:22 60.10273 -178.03194 41098 ft 471 kts 256°
2026-05-06 18:22 60.08646 -178.15916 41098 ft 471 kts 255°
2026-05-06 18:23 60.07004 -178.28643 41091 ft 471 kts 255°
2026-05-06 18:23 60.05351 -178.41347 41095 ft 471 kts 255°
2026-05-06 18:24 60.03686 -178.54037 41089 ft 471 kts 255°
2026-05-06 18:24 60.02008 -178.66719 41087 ft 471 kts 255°
2026-05-06 18:25 60.00318 -178.79392 41088 ft 471 kts 254°
2026-05-06 18:25 59.98614 -178.92064 41089 ft 471 kts 254°
2026-05-06 18:26 59.96898 -179.04721 41082 ft 472 kts 254°
2026-05-06 18:26 59.95170 -179.17362 41079 ft 472 kts 253°
2026-05-06 18:27 59.93426 -179.30021 41076 ft 472 kts 253°
2026-05-06 18:27 59.91671 -179.42658 41074 ft 472 kts 253°
2026-05-06 18:28 59.89915 -179.55204 41069 ft 473 kts 253°
2026-05-06 18:28 59.88132 -179.67841 41066 ft 473 kts 253°
2026-05-06 18:29 59.86337 -179.80466 41065 ft 474 kts 253°
2026-05-06 18:29 59.84527 -179.93100 41062 ft 474 kts 252°
2026-05-06 18:30 59.82717 179.94355 41062 ft 474 kts 252°
2026-05-06 18:30 59.80699 179.80485 41058 ft 475 kts 252°
2026-05-06 18:31 59.78853 179.67872 41058 ft 475 kts 252°
2026-05-06 18:31 59.76989 179.55259 41053 ft 476 kts 252°
2026-05-06 18:32 59.75097 179.42659 41049 ft 476 kts 251°
2026-05-06 18:32 59.72915 179.30244 41049 ft 476 kts 249°
2026-05-06 18:33 59.70687 179.17868 41045 ft 476 kts 249°
2026-05-06 18:33 59.68448 179.05509 41041 ft 477 kts 248°
2026-05-06 18:34 59.66194 178.93148 41038 ft 477 kts 248°
2026-05-06 18:34 59.63927 178.80794 41033 ft 477 kts 248°
2026-05-06 18:35 59.61648 178.68459 41030 ft 477 kts 248°
2026-05-06 18:35 59.59356 178.56133 41028 ft 478 kts 248°
2026-05-06 18:36 59.57065 178.43892 41022 ft 478 kts 248°
2026-05-06 18:36 59.54746 178.31585 41015 ft 478 kts 248°
2026-05-06 18:37 59.52796 178.21284 41016 ft 478 kts 247°
2026-05-06 18:37 59.50072 178.06995 41007 ft 479 kts 247°
2026-05-06 18:38 59.47716 177.94716 41005 ft 479 kts 247°
2026-05-06 18:38 59.45347 177.82445 41001 ft 479 kts 247°
2026-05-06 18:39 59.42965 177.70187 40998 ft 480 kts 246°
2026-05-06 18:40 59.39369 177.51820 40992 ft 480 kts 246°
2026-05-06 18:40 59.36947 177.39549 40988 ft 480 kts 246°
2026-05-06 18:41 59.34519 177.27318 40983 ft 481 kts 246°
2026-05-06 18:41 59.32074 177.15080 40973 ft 481 kts 246°
2026-05-06 18:42 59.29635 177.02949 40972 ft 482 kts 246°
2026-05-06 18:42 59.27168 176.90752 40966 ft 482 kts 246°
2026-05-06 18:43 59.24684 176.78537 40966 ft 483 kts 246°
2026-05-06 18:43 59.22187 176.66341 40959 ft 483 kts 245°
2026-05-06 18:44 59.19677 176.54151 40953 ft 484 kts 245°
2026-05-06 18:44 59.17153 176.41964 40952 ft 484 kts 245°
2026-05-06 18:45 59.14612 176.29772 40935 ft 485 kts 245°
2026-05-06 18:45 59.12060 176.17602 40933 ft 485 kts 245°
2026-05-06 18:46 59.09493 176.05429 40933 ft 485 kts 245°
2026-05-06 18:46 59.06913 175.93268 40928 ft 486 kts 245°
2026-05-06 18:47 59.04320 175.81118 40923 ft 486 kts 245°
2026-05-06 18:47 59.01714 175.68977 40917 ft 487 kts 244°
2026-05-06 18:48 58.99094 175.56845 40911 ft 487 kts 244°
2026-05-06 18:48 58.96463 175.44735 40907 ft 487 kts 244°
2026-05-06 18:49 58.93818 175.32629 40905 ft 487 kts 244°
2026-05-06 18:49 58.91160 175.20536 40900 ft 487 kts 244°
2026-05-06 18:50 58.88490 175.08451 40893 ft 488 kts 244°
2026-05-06 18:50 58.85812 174.96403 40888 ft 488 kts 244°
2026-05-06 18:51 58.83139 174.84445 40879 ft 488 kts 243°
2026-05-06 18:51 58.80414 174.72332 40877 ft 488 kts 243°
2026-05-06 18:52 58.77695 174.60314 40871 ft 488 kts 243°
2026-05-06 18:52 58.74987 174.48404 40864 ft 488 kts 243°
2026-05-06 18:53 58.72252 174.36432 40858 ft 488 kts 243°
2026-05-06 18:53 58.69505 174.24489 40858 ft 488 kts 243°
2026-05-06 18:54 58.66743 174.12550 40849 ft 488 kts 243°
2026-05-06 18:54 58.63971 174.00633 40843 ft 488 kts 243°
2026-05-06 18:55 58.61190 173.88736 40834 ft 488 kts 242°
2026-05-06 18:55 58.58869 173.78862 40833 ft 488 kts 242°
2026-05-06 18:56 58.56066 173.66992 40824 ft 488 kts 242°
2026-05-06 18:56 58.53256 173.55155 40821 ft 488 kts 242°
2026-05-06 18:57 58.50430 173.43320 40816 ft 488 kts 242°
2026-05-06 18:57 58.47594 173.31515 40810 ft 488 kts 242°
2026-05-06 18:58 58.44750 173.19734 40802 ft 488 kts 242°
2026-05-06 18:58 58.41892 173.07972 40797 ft 488 kts 242°
2026-05-06 18:59 58.39025 172.96219 40790 ft 488 kts 242°
2026-05-06 18:59 58.36148 172.84497 40786 ft 488 kts 241°
2026-05-06 19:00 58.33260 172.72796 40786 ft 488 kts 241°
2026-05-06 19:00 58.30363 172.61112 40762 ft 488 kts 241°
2026-05-06 19:01 58.27453 172.49435 40756 ft 488 kts 241°
2026-05-06 19:01 58.24534 172.37790 40750 ft 488 kts 241°
2026-05-06 19:02 58.21604 172.26156 40747 ft 488 kts 241°
2026-05-06 19:02 58.18664 172.14549 40740 ft 488 kts 240°
2026-05-06 19:03 58.15709 172.02947 40737 ft 488 kts 240°
2026-05-06 19:03 58.12743 171.91361 40728 ft 488 kts 240°
2026-05-06 19:04 58.09791 171.79883 40723 ft 488 kts 240°
2026-05-06 19:04 58.06803 171.68329 40719 ft 488 kts 240°
2026-05-06 19:05 58.03805 171.56800 40710 ft 489 kts 240°
2026-05-06 19:05 58.00787 171.45244 40697 ft 489 kts 240°
2026-05-06 19:06 57.97766 171.33745 40693 ft 489 kts 240°
2026-05-06 19:06 57.94737 171.22267 40687 ft 489 kts 240°
2026-05-06 19:07 57.91695 171.10804 40678 ft 489 kts 240°
2026-05-06 19:07 57.88641 170.99350 40670 ft 489 kts 240°
2026-05-06 19:08 57.85578 170.87922 40658 ft 489 kts 239°
2026-05-06 19:08 57.82504 170.76514 40654 ft 489 kts 239°
2026-05-06 19:09 57.79420 170.65125 40652 ft 489 kts 239°
2026-05-06 19:09 57.76323 170.53739 40638 ft 489 kts 239°
2026-05-06 19:10 57.73219 170.42388 40633 ft 489 kts 239°
2026-05-06 19:10 57.70122 170.31117 40622 ft 489 kts 239°
2026-05-06 19:11 57.66994 170.19797 40620 ft 490 kts 239°
2026-05-06 19:11 57.63859 170.08494 40612 ft 489 kts 239°
2026-05-06 19:12 57.60714 169.97221 40608 ft 489 kts 239°
2026-05-06 19:12 57.57557 169.85957 40603 ft 490 kts 239°
2026-05-06 19:13 57.54389 169.74719 40593 ft 489 kts 239°
2026-05-06 19:13 57.51209 169.63495 40585 ft 489 kts 239°
2026-05-06 19:14 57.48023 169.52288 40585 ft 489 kts 239°
2026-05-06 19:14 57.44827 169.41103 40577 ft 489 kts 239°
2026-05-06 19:15 57.41622 169.29934 40570 ft 490 kts 238°
2026-05-06 19:15 57.38405 169.18788 40565 ft 489 kts 238°
2026-05-06 19:16 57.35170 169.07640 40556 ft 489 kts 238°
2026-05-06 19:16 57.31933 168.96531 40553 ft 490 kts 238°
2026-05-06 19:17 57.28687 168.85445 40547 ft 490 kts 238°
2026-05-06 19:17 57.25429 168.74369 40547 ft 490 kts 238°
2026-05-06 19:18 57.22156 168.63302 40545 ft 489 kts 238°
2026-05-06 19:18 57.18882 168.52274 40524 ft 489 kts 238°
2026-05-06 19:19 57.15598 168.41266 40526 ft 489 kts 238°
2026-05-06 19:19 57.12305 168.30281 40523 ft 489 kts 238°
2026-05-06 19:20 57.09005 168.19327 40520 ft 489 kts 238°
2026-05-06 19:20 57.05716 168.08458 40515 ft 489 kts 238°
2026-05-06 19:21 57.02363 167.97431 40511 ft 489 kts 238°
2026-05-06 19:21 56.99025 167.86502 40508 ft 489 kts 238°
2026-05-06 19:22 56.95689 167.75627 40504 ft 489 kts 238°
2026-05-06 19:22 56.92311 167.64672 40501 ft 489 kts 238°
2026-05-06 19:23 56.88951 167.53817 40497 ft 489 kts 238°
2026-05-06 19:23 56.85588 167.43008 40493 ft 489 kts 238°
2026-05-06 19:24 56.82212 167.32206 40490 ft 489 kts 238°
2026-05-06 19:24 56.78832 167.21430 40483 ft 489 kts 238°
2026-05-06 19:25 56.75468 167.10653 40482 ft 489 kts 238°
2026-05-06 19:25 56.72096 166.99881 40485 ft 489 kts 238°
2026-05-06 19:26 56.68693 166.89062 40480 ft 489 kts 238°
2026-05-06 19:26 56.65301 166.78331 40471 ft 489 kts 238°
2026-05-06 19:27 56.61901 166.67625 40470 ft 489 kts 238°
2026-05-06 19:27 56.58482 166.56905 40463 ft 489 kts 238°
2026-05-06 19:28 56.55063 166.46238 40461 ft 489 kts 238°
2026-05-06 19:28 56.51662 166.35670 40468 ft 488 kts 238°
2026-05-06 19:29 56.48201 166.24963 40455 ft 488 kts 238°
2026-05-06 19:29 56.44758 166.14361 40463 ft 488 kts 238°
2026-05-06 19:30 56.41306 166.03778 40461 ft 488 kts 238°
2026-05-06 19:30 56.37846 165.93218 40456 ft 488 kts 238°
2026-05-06 19:31 56.34405 165.82761 40446 ft 488 kts 238°
2026-05-06 19:31 56.29179 165.66968 40455 ft 487 kts 238°
2026-05-06 19:32 56.25686 165.56470 40440 ft 487 kts 238°
2026-05-06 19:32 56.22195 165.46022 40442 ft 487 kts 238°
2026-05-06 19:33 56.18698 165.35599 40443 ft 487 kts 238°
2026-05-06 19:33 56.15182 165.25165 40445 ft 486 kts 237°
2026-05-06 19:34 56.11668 165.14783 40437 ft 486 kts 237°
2026-05-06 19:34 56.08148 165.04427 40436 ft 486 kts 237°
2026-05-06 19:35 56.04614 164.94072 40454 ft 486 kts 237°
2026-05-06 19:35 56.01060 164.83708 40440 ft 485 kts 237°
2026-05-06 19:36 55.97507 164.73395 40440 ft 485 kts 237°
2026-05-06 19:36 55.93956 164.63137 40441 ft 485 kts 237°
2026-05-06 19:37 55.90398 164.52898 40439 ft 485 kts 237°
2026-05-06 19:37 55.87436 164.44406 40441 ft 485 kts 237°
2026-05-06 19:38 55.83257 164.32472 40444 ft 484 kts 237°
2026-05-06 19:38 55.79679 164.22300 40444 ft 484 kts 237°
2026-05-06 19:39 55.76099 164.12166 40443 ft 484 kts 237°
2026-05-06 19:39 55.72509 164.02047 40444 ft 484 kts 237°
2026-05-06 19:40 55.68912 163.91951 40446 ft 484 kts 237°
2026-05-06 19:40 55.65305 163.81867 40448 ft 483 kts 237°
2026-05-06 19:41 55.61695 163.71814 40449 ft 483 kts 237°
2026-05-06 19:41 55.58078 163.61783 40454 ft 483 kts 237°
2026-05-06 19:42 55.54453 163.51774 40454 ft 483 kts 237°
2026-05-06 19:42 55.50800 163.41725 40457 ft 483 kts 237°
2026-05-06 19:43 55.47157 163.31744 40460 ft 482 kts 237°
2026-05-06 19:43 55.43514 163.21804 40458 ft 482 kts 237°
2026-05-06 19:44 55.39852 163.11853 40458 ft 482 kts 237°
2026-05-06 19:44 55.36221 163.02025 40466 ft 482 kts 237°
2026-05-06 19:45 55.32612 162.92089 40465 ft 482 kts 239°
2026-05-06 19:45 55.29210 162.81945 40471 ft 481 kts 239°
2026-05-06 19:46 55.26354 162.73466 40467 ft 481 kts 239°
2026-05-06 19:46 55.22938 162.63363 40473 ft 481 kts 239°
2026-05-06 19:47 55.19517 162.53283 40477 ft 481 kts 239°
2026-05-06 19:47 55.16091 162.43227 40478 ft 480 kts 239°
2026-05-06 19:48 55.12682 162.33264 40477 ft 480 kts 239°
2026-05-06 19:48 55.09205 162.23139 40483 ft 481 kts 239°
2026-05-06 19:49 55.05741 162.13094 40484 ft 481 kts 239°
2026-05-06 19:49 55.04011 162.08093 40336 ft 482 kts 239°
2026-05-06 19:49 55.02261 162.03047 40089 ft 482 kts 239°
2026-05-06 19:50 55.00547 161.98112 39885 ft 482 kts 239°
2026-05-06 19:50 54.98793 161.93073 39649 ft 482 kts 239°
2026-05-06 19:50 54.97039 161.88046 39421 ft 482 kts 239°
2026-05-06 19:50 54.95295 161.83057 39204 ft 482 kts 239°
2026-05-06 19:51 54.93539 161.78045 38975 ft 482 kts 239°
2026-05-06 19:51 54.91774 161.73014 38754 ft 482 kts 239°
2026-05-06 19:51 54.90023 161.68033 38539 ft 481 kts 239°
2026-05-06 19:51 54.88288 161.63111 38324 ft 474 kts 239°
2026-05-06 19:52 54.86562 161.58221 38091 ft 470 kts 239°
2026-05-06 19:52 54.84850 161.53379 37823 ft 470 kts 239°
2026-05-06 19:52 54.83135 161.48542 37557 ft 470 kts 239°
2026-05-06 19:52 54.81421 161.43717 37300 ft 470 kts 239°
2026-05-06 19:53 54.79700 161.38886 37039 ft 470 kts 239°
2026-05-06 19:53 54.77966 161.34032 36778 ft 470 kts 239°
2026-05-06 19:53 54.76242 161.29214 36551 ft 470 kts 239°
2026-05-06 19:53 54.74506 161.24373 36293 ft 470 kts 238°
2026-05-06 19:54 54.72778 161.19562 36043 ft 470 kts 238°
2026-05-06 19:54 54.71052 161.14765 35805 ft 470 kts 238°
2026-05-06 19:54 54.69310 161.09932 35560 ft 469 kts 238°
2026-05-06 19:54 54.67578 161.05138 35319 ft 469 kts 238°
2026-05-06 19:55 54.65841 161.00336 35076 ft 469 kts 238°
2026-05-06 19:55 54.64106 160.95553 34852 ft 469 kts 238°
2026-05-06 19:55 54.62352 160.90723 34618 ft 469 kts 238°
2026-05-06 19:55 54.60604 160.85920 34390 ft 469 kts 238°
2026-05-06 19:56 54.58865 160.81153 34164 ft 469 kts 238°
2026-05-06 19:56 54.57124 160.76389 33938 ft 469 kts 238°
2026-05-06 19:56 54.55383 160.71631 33715 ft 469 kts 238°
2026-05-06 19:56 54.53642 160.66885 33483 ft 469 kts 238°
2026-05-06 19:57 54.51883 160.62101 33219 ft 469 kts 238°
2026-05-06 19:57 54.50126 160.57331 32947 ft 468 kts 238°
2026-05-06 19:57 54.48370 160.52569 32681 ft 468 kts 238°
2026-05-06 19:57 54.46622 160.47842 32422 ft 468 kts 238°
2026-05-06 19:58 54.44851 160.43058 32164 ft 468 kts 238°
2026-05-06 19:58 54.43103 160.38349 31895 ft 467 kts 238°
2026-05-06 19:58 54.41320 160.33550 31632 ft 467 kts 238°
2026-05-06 19:58 54.39558 160.28820 31384 ft 467 kts 238°
2026-05-06 19:59 54.37810 160.24134 31130 ft 466 kts 238°
2026-05-06 19:59 54.36057 160.19445 30887 ft 466 kts 238°
2026-05-06 19:59 54.34303 160.14761 30637 ft 466 kts 238°
2026-05-06 19:59 54.32516 160.09999 30407 ft 466 kts 238°
2026-05-06 20:00 54.30763 160.05335 30151 ft 465 kts 238°
2026-05-06 20:00 54.29008 160.00673 29905 ft 465 kts 238°
2026-05-06 20:00 54.27243 159.95994 29672 ft 465 kts 238°
2026-05-06 20:00 54.25485 159.91345 29392 ft 465 kts 238°
2026-05-06 20:01 54.23703 159.86642 29091 ft 465 kts 238°
2026-05-06 20:01 54.21965 159.82065 28791 ft 465 kts 238°
2026-05-06 20:01 54.20165 159.77308 28511 ft 462 kts 238°
2026-05-06 20:01 54.18413 159.72638 28220 ft 460 kts 238°
2026-05-06 20:02 54.16669 159.67987 27939 ft 458 kts 238°
2026-05-06 20:02 54.14951 159.63413 27657 ft 455 kts 238°
2026-05-06 20:02 54.13225 159.58825 27389 ft 453 kts 238°
2026-05-06 20:02 54.11503 159.54259 27104 ft 451 kts 238°
2026-05-06 20:03 54.09795 159.49737 26828 ft 450 kts 238°
2026-05-06 20:03 54.08114 159.45295 26577 ft 448 kts 238°
2026-05-06 20:03 54.06414 159.40815 26297 ft 446 kts 238°
2026-05-06 20:03 54.04717 159.36351 26028 ft 444 kts 238°
2026-05-06 20:04 54.03028 159.31916 25767 ft 443 kts 238°
2026-05-06 20:04 54.01355 159.27528 25514 ft 441 kts 238°
2026-05-06 20:04 53.99675 159.23133 25261 ft 439 kts 238°
2026-05-06 20:04 53.98012 159.18786 25005 ft 438 kts 238°
2026-05-06 20:05 53.96351 159.14455 24754 ft 436 kts 238°
2026-05-06 20:05 53.94682 159.10108 24493 ft 434 kts 238°
2026-05-06 20:05 53.93032 159.05819 24222 ft 433 kts 238°
2026-05-06 20:05 53.91390 159.01559 23905 ft 431 kts 238°
2026-05-06 20:06 53.89750 158.97309 23499 ft 428 kts 238°
2026-05-06 20:06 53.88114 158.93080 23040 ft 424 kts 238°
2026-05-06 20:06 53.86500 158.88909 22506 ft 421 kts 238°
2026-05-06 20:06 53.84879 158.84734 22029 ft 416 kts 238°
2026-05-06 20:07 53.83285 158.80637 21565 ft 411 kts 238°
2026-05-06 20:07 53.81707 158.76583 21094 ft 407 kts 238°
2026-05-06 20:07 53.80153 158.72597 20640 ft 403 kts 238°
2026-05-06 20:07 53.78603 158.68630 20203 ft 399 kts 238°
2026-05-06 20:08 53.77084 158.64750 19809 ft 391 kts 238°
2026-05-06 20:08 53.75580 158.60914 19414 ft 386 kts 238°
2026-05-06 20:08 53.74100 158.57144 18991 ft 383 kts 238°
2026-05-06 20:08 53.72384 158.53724 18512 ft 384 kts 223°
2026-05-06 20:09 53.70081 158.51393 18056 ft 386 kts 204°
2026-05-06 20:09 53.67454 158.50436 17610 ft 388 kts 185°
2026-05-06 20:09 53.64769 158.50880 17159 ft 386 kts 171°
2026-05-06 20:09 53.62156 158.51860 16691 ft 383 kts 169°
2026-05-06 20:10 53.59551 158.52881 16228 ft 381 kts 169°
2026-05-06 20:10 53.56977 158.53881 15775 ft 378 kts 169°
2026-05-06 20:10 53.54423 158.54857 15327 ft 376 kts 170°
2026-05-06 20:10 53.51881 158.55814 14891 ft 373 kts 170°
2026-05-06 20:11 53.49398 158.56741 14512 ft 368 kts 170°
2026-05-06 20:11 53.46907 158.57667 14082 ft 363 kts 170°
2026-05-06 20:11 53.44459 158.58573 13718 ft 357 kts 171°
2026-05-06 20:11 53.42048 158.59463 13291 ft 354 kts 171°
2026-05-06 20:12 53.39630 158.60351 12714 ft 353 kts 171°
2026-05-06 20:12 53.37245 158.61226 12318 ft 349 kts 171°
2026-05-06 20:12 53.34886 158.62092 11924 ft 345 kts 171°
2026-05-06 20:12 53.32548 158.62950 11456 ft 339 kts 171°
2026-05-06 20:13 53.30252 158.63793 10863 ft 331 kts 170°
2026-05-06 20:13 53.28025 158.64608 10615 ft 319 kts 171°
2026-05-06 20:13 53.25884 158.65394 10433 ft 315 kts 171°
2026-05-06 20:13 53.23755 158.66168 10131 ft 310 kts 171°
2026-05-06 20:14 53.21643 158.66938 9929 ft 309 kts 171°
2026-05-06 20:14 53.19536 158.67704 9750 ft 309 kts 171°
2026-05-06 20:14 53.17440 158.68467 9596 ft 308 kts 171°
2026-05-06 20:14 53.15344 158.69243 9446 ft 308 kts 169°
2026-05-06 20:15 53.13291 158.70295 9316 ft 310 kts 162°
2026-05-06 20:15 53.11287 158.71621 9210 ft 310 kts 160°
2026-05-06 20:15 53.09333 158.72972 9019 ft 300 kts 160°
2026-05-06 20:15 53.07414 158.74304 8537 ft 299 kts 160°
2026-05-06 20:16 53.05465 158.75645 7954 ft 302 kts 160°
2026-05-06 20:16 53.03531 158.76970 7302 ft 298 kts 160°
2026-05-06 20:16 53.01674 158.78239 6737 ft 289 kts 160°
2026-05-06 20:16 52.99837 158.79493 6211 ft 281 kts 160°
2026-05-06 20:17 52.97997 158.80353 5606 ft 270 kts 185°
2026-05-06 20:17 52.96286 158.79555 4999 ft 248 kts 223°
2026-05-06 20:17 52.95306 158.77400 4409 ft 227 kts 256°
2026-05-06 20:17 52.94829 158.74943 3885 ft 221 kts 257°
2026-05-06 20:18 52.94343 158.72544 3426 ft 213 kts 256°
2026-05-06 20:18 52.93844 158.70294 3229 ft 203 kts 255°
2026-05-06 20:18 52.93344 158.68147 3034 ft 193 kts 254°
2026-05-06 20:18 52.92869 158.66164 2994 ft 175 kts 256°
2026-05-06 20:19 52.92691 158.64282 2984 ft 158 kts 277°
2026-05-06 20:19 52.93098 158.62626 3001 ft 158 kts 305°
2026-05-06 20:19 52.93918 158.61401 3005 ft 161 kts 320°
2026-05-06 20:19 52.94875 158.60456 2993 ft 155 kts 327°
2026-05-06 20:20 52.95835 158.59725 2967 ft 150 kts 330°
2026-05-06 20:20 52.96796 158.59051 2995 ft 150 kts 331°
2026-05-06 20:20 52.97764 158.58381 2996 ft 151 kts 331°
2026-05-06 20:20 52.98733 158.57712 3007 ft 150 kts 331°
2026-05-06 20:21 52.99695 158.57047 3002 ft 147 kts 331°
2026-05-06 20:21 53.00605 158.56422 2975 ft 137 kts 330°
2026-05-06 20:21 53.01482 158.55812 2964 ft 136 kts 330°
2026-05-06 20:21 53.02340 158.55215 2795 ft 134 kts 330°
2026-05-06 20:22 53.03209 158.54606 2635 ft 137 kts 331°
2026-05-06 20:22 53.04081 158.53998 2456 ft 134 kts 332°
2026-05-06 20:22 53.04950 158.53393 2283 ft 137 kts 332°
2026-05-06 20:22 53.05839 158.52775 2123 ft 139 kts 333°
2026-05-06 20:23 53.06738 158.52150 1934 ft 139 kts 333°
2026-05-06 20:23 53.07632 158.51529 1756 ft 140 kts 333°
2026-05-06 20:23 53.08526 158.50898 1561 ft 139 kts 334°
2026-05-06 20:23 53.09417 158.50257 1345 ft 139 kts 336°
2026-05-06 20:24 53.10293 158.49648 1169 ft 138 kts 337°
2026-05-06 20:24 53.11198 158.49036 1043 ft 139 kts 338°
2026-05-06 20:24 53.12082 158.48414 838 ft 134 kts 337°
2026-05-06 20:24 53.12930 158.47850 689 ft 134 kts 336°
2026-05-06 20:25 53.13798 158.47232 537 ft 136 kts 336°
2026-05-06 20:25 53.14676 158.46621 357 ft 137 kts 336°
2026-05-06 20:25 53.15563 158.46014 172 ft 138 kts 336°
2026-05-06 20:25 53.16348 158.45464 123 ft 94 kts 337°
2026-05-06 20:26 53.16782 158.45158 127 ft 49 kts 338°
2026-05-06 20:26 53.17058 158.44982 124 ft 36 kts 339°
2026-05-06 20:26 53.17255 158.44854 134 ft 24 kts 331°
2026-05-06 20:26 53.17374 158.44747 131 ft 15 kts 336°
2026-05-06 20:27 53.17450 158.44697 131 ft 9 kts 339°
2026-05-06 20:27 53.17495 158.44669 128 ft 5 kts 340°
2026-05-06 20:27 53.17515 158.44657 132 ft 1 kts 340°
2026-05-06 20:27 53.17523 158.44652 130 ft 3 kts 340°
2026-05-06 20:28 53.17570 158.44590 127 ft 16 kts 290°
2026-05-06 20:28 53.17544 158.44390 141 ft 15 kts 242°
2026-05-06 20:28 53.17482 158.44379 143 ft 11 kts 158°
2026-05-06 20:28 53.17394 158.44438 143 ft 16 kts 158°
2026-05-06 20:29 53.17280 158.44513 143 ft 20 kts 158°
2026-05-06 20:29 53.17139 158.44609 135 ft 24 kts 158°
2026-05-06 20:29 53.16974 158.44724 134 ft 27 kts 157°
2026-05-06 20:29 53.16796 158.44851 138 ft 28 kts 157°
2026-05-06 20:30 53.16616 158.44969 143 ft 28 kts 160°
2026-05-06 20:30 53.16385 158.45127 135 ft 8 kts 179°
2026-05-06 20:30 53.16342 158.45082 148 ft 6 kts 230°
2026-05-06 20:31 53.16334 158.45058 151 ft 0 kts 248°